Flag for Germany Weather past 2 weeks in Neubrandenburg, Mecklenburg-Western Pomerania, Germany

Now
54 °F

Passing clouds.


Feels Like: 54 °F
Forecast: 47 / 66 °F
Wind: 1 mph from Southwest

Location: Greifswald

Current Time: Aug 23, 2014 at 9:59:19 PM

Latest Report: Aug 23, 2014 at 9:00 PM


Visibility: 19 mi

Pressure: 29.86 "Hg

Humidity: 84%

Dew point: 49 °F

Location of NeubrandenburgLocation

Historic Weather in Neubrandenburg — Graph

°F

Neubrandenburg temperature yesterday

Maximum temperature yesterday: 68 °F (at 2:00 PM)
Minimum temperature yesterday: 50 °F (at 6:00 AM)
Average temperature yesterday: 59 °F

Past Weeks' High & Low Weather Summary

 TemperatureHumidityPressure
High80 °F (Aug 9, 1:00 PM)99% (Aug 9, 3:00 AM)30.00 "Hg (Aug 9, 3:00 AM)
Low49 °F (Aug 21, 6:00 AM)42% (Aug 11, 7:00 PM)29.47 "Hg (Aug 18, 3:00 PM)
Average61 °F75%29.80 "Hg
* Reported Aug 8 9:00 PM — Aug 23 9:00 PM, Neubrandenburg, Weather by CustomWeather, © 2014

Note: Actual official high and low records may vary slightly from our data, if they occured in-between our weather recording intervals... More about our weather records

Advertising

Neubrandenburg weather history for previous 24 hours

 ConditionsComfort  
Time TempWeatherWind HumidityBarometerVisibility
9:00 PM
Aug 23
54 °FPassing clouds.1 mph84%29.86 "Hg19 mi
8:00 PM57 °FPassing clouds.1 mph78%29.86 "Hg22 mi
7:00 PM59 °FPassing clouds.2 mph74%29.86 "Hg22 mi
6:00 PM59 °FSprinkles. Partly sunny.3 mph71%29.86 "Hg25 mi
5:00 PM56 °FOvercast.2 mph83%29.85 "Hg22 mi
4:00 PM58 °FOvercast.2 mph78%29.85 "Hg28 mi
3:00 PM57 °FPartly sunny.7 mph71%29.85 "Hg31 mi
2:00 PM63 °FPartly sunny.6 mph57%29.84 "Hg31 mi
1:00 PM61 °FPartly sunny.6 mph63%29.85 "Hg31 mi
12:00 PM60 °FPartly sunny.6 mph66%29.85 "Hg28 mi
11:00 AM58 °FOvercast.5 mph72%29.84 "Hg22 mi
10:00 AM56 °FOvercast.5 mph78%29.84 "Hg22 mi
9:00 AM54 °FOvercast.5 mph83%29.83 "Hg19 mi
8:00 AM53 °FOvercast.5 mph85%29.82 "Hg19 mi
7:00 AM53 °FPartly sunny.3 mph87%29.81 "Hg19 mi
6:00 AM52 °FPartly sunny.3 mph88%29.80 "Hg16 mi
4:00 AM54 °FClear.3 mph84%29.79 "Hg19 mi
3:00 AM57 °FPassing clouds.6 mph78%29.80 "Hg19 mi
2:00 AM58 °FOvercast.5 mph74%29.80 "Hg22 mi
1:00 AM59 °FPassing clouds.3 mph68%29.80 "Hg37 mi
12:00 AM60 °FOvercast.3 mph64%29.81 "Hg37 mi
11:00 PM
Aug 22
61 °FOvercast.5 mph60%29.82 "Hg34 mi
10:00 PM61 °FOvercast.2 mph63%29.82 "Hg28 mi
9:00 PM61 °FPassing clouds.2 mph60%29.83 "Hg25 mi
Weather by CustomWeather, © 2014

See weather overviewHow to use our weather pages